Location: Marcé
(47.5801°N, 0.3280°W)
Time: 14:53:11
(UTC+01:00)

Explorer 11/Cluster Stage 4 - Pass Details

Date: 08 December 2021
Orbit: 467 x 1255 km, 28.8° (Epoch: 23 January)

Event Time Altitude Azimuth Distance (km) Brightness Sun altitude
Exits shadow 05:29:25 10° 191° (S) 2,930 9.4 -30.5°
Drops below altitude 10° 05:29:56 10° 186° (S) 2,965 9.5 -30.4°
Sets 05:36:19 0° 150° (SSE) 4,097 10.7 -29.3°
